TimeCDT,TemperatureF,Dew PointF,Humidity,Sea Level PressureIn,VisibilityMPH,Wind Direction,Wind SpeedMPH,Gust SpeedMPH,PrecipitationIn,Events,Conditions,WindDirDegrees,DateUTC
12:15 AM,46.4,42.8,87,30.05,9.0,NNW,8.1,-,0.00,Rain,Light Rain,340,2012-10-10 05:15:00
12:54 AM,46.9,43.0,86,30.07,10.0,NW,4.6,-,0.01,Rain,Light Rain,310,2012-10-10 05:54:00
1:54 AM,46.0,42.1,86,30.09,10.0,West,4.6,-,0.01,,Overcast,280,2012-10-10 06:54:00
2:54 AM,43.0,39.9,89,30.10,10.0,West,5.8,-,N/A,,Clear,280,2012-10-10 07:54:00
3:54 AM,43.0,41.0,93,30.11,10.0,West,8.1,-,N/A,,Clear,280,2012-10-10 08:54:00
4:54 AM,44.1,39.9,85,30.14,10.0,NW,10.4,-,N/A,,Clear,320,2012-10-10 09:54:00
5:54 AM,41.0,37.0,86,30.17,10.0,NW,5.8,-,N/A,,Clear,310,2012-10-10 10:54:00
6:54 AM,39.0,36.0,89,30.19,10.0,WNW,6.9,-,N/A,,Clear,300,2012-10-10 11:54:00
7:54 AM,41.0,37.0,86,30.22,10.0,WNW,8.1,-,N/A,,Clear,300,2012-10-10 12:54:00
8:54 AM,45.0,33.1,63,30.25,10.0,NW,11.5,-,N/A,,Clear,310,2012-10-10 13:54:00
9:54 AM,48.0,30.9,52,30.27,10.0,NW,12.7,-,N/A,,Clear,310,2012-10-10 14:54:00
10:54 AM,50.0,28.9,44,30.29,10.0,NNW,15.0,-,N/A,,Clear,330,2012-10-10 15:54:00
11:54 AM,51.1,28.9,43,30.29,10.0,WNW,5.8,17.3,N/A,,Clear,290,2012-10-10 16:54:00
12:54 PM,55.0,28.0,35,30.27,10.0,NW,11.5,17.3,N/A,,Clear,320,2012-10-10 17:54:00
1:54 PM,55.0,28.0,35,30.24,10.0,West,12.7,17.3,N/A,,Clear,270,2012-10-10 18:54:00
2:54 PM,55.9,25.0,30,30.23,10.0,WNW,8.1,-,N/A,,Clear,290,2012-10-10 19:54:00
3:54 PM,57.0,28.0,33,30.22,10.0,Variable,5.8,-,N/A,,Clear,0,2012-10-10 20:54:00
4:54 PM,57.9,28.0,32,30.21,10.0,WNW,11.5,-,N/A,,Clear,300,2012-10-10 21:54:00
5:54 PM,57.0,28.0,33,30.21,10.0,WSW,5.8,-,N/A,,Clear,250,2012-10-10 22:54:00
6:54 PM,51.1,30.0,44,30.21,10.0,SSW,3.5,-,N/A,,Clear,210,2012-10-10 23:54:00
7:54 PM,45.0,37.0,74,30.22,10.0,Calm,Calm,-,N/A,,Clear,0,2012-10-11 00:54:00
8:54 PM,42.1,34.0,73,30.22,10.0,Calm,Calm,-,N/A,,Clear,0,2012-10-11 01:54:00
9:54 PM,41.0,37.9,89,30.22,10.0,ENE,3.5,-,N/A,,Clear,60,2012-10-11 02:54:00
10:54 PM,39.0,35.1,86,30.23,10.0,Calm,Calm,-,N/A,,Clear,0,2012-10-11 03:54:00
11:19 PM,39.2,37.4,93,30.23,1.8,Calm,Calm,-,N/A,,Clear,0,2012-10-11 04:19:00
11:52 PM,39.2,37.4,93,30.23,4.0,Calm,Calm,-,N/A,,Clear,0,2012-10-11 04:52:00
11:54 PM,37.9,37.0,97,30.23,8.0,Calm,Calm,-,N/A,,Clear,0,2012-10-11 04:54:00